Location: Hopkins Observatory
(42.6965°N, 73.1843°W)
Time: 09:33:23
(UTC-04:00)

UOSAT-12 - Visible Passes

Search period start: 29 September 2016 00:00
Search period end: 09 October 2016 00:00
Orbit: 621 x 633 km, 64.6° (Epoch: 29 September)

Date Brightness Start Highest point End Pass type
(mag) Time Alt. Az. Time Alt. Az. Time Alt. Az.
04 Oct 9.8 21:08:42 10° N 21:09:05 11° N 21:09:05 11° N visible
05 Oct 9.8 21:27:47 10° NNW 21:28:21 13° N 21:28:21 13° N visible
06 Oct 10.0 21:47:15 10° NNW 21:47:39 12° NNW 21:47:39 12° NNW visible
07 Oct 9.3 20:28:01 10° N 20:29:41 15° NNE 20:29:41 15° NNE visible
08 Oct 9.1 20:47:13 10° NNW 20:49:03 19° N 20:49:03 19° N visible
